Year,Month,Day,Hour,Minute,Value (Times are PST for temperature in C)
2010,10,15,00,00,6.90
2010,10,15,00,01,6.90
2010,10,15,00,02,6.90
2010,10,15,00,03,6.80
2010,10,15,00,04,6.80
2010,10,15,00,05,6.80
2010,10,15,00,06,6.80
2010,10,15,00,07,6.80
2010,10,15,00,08,6.80
2010,10,15,00,09,6.80
2010,10,15,00,10,6.80
2010,10,15,00,11,6.90
2010,10,15,00,12,6.90
2010,10,15,00,13,6.90
2010,10,15,00,14,6.90
2010,10,15,00,15,6.90
2010,10,15,00,16,7.00
2010,10,15,00,17,7.00
2010,10,15,00,18,6.90
2010,10,15,00,19,6.90
2010,10,15,00,20,6.90
2010,10,15,00,21,6.80
2010,10,15,00,22,6.80
2010,10,15,00,23,6.80
2010,10,15,00,24,6.70
2010,10,15,00,25,6.70
2010,10,15,00,26,6.60
2010,10,15,00,27,6.60
2010,10,15,00,28,6.50
2010,10,15,00,29,6.50
2010,10,15,00,30,6.40
2010,10,15,00,31,6.40
2010,10,15,00,32,6.40
2010,10,15,00,33,6.30
2010,10,15,00,34,6.30
2010,10,15,00,35,6.30
2010,10,15,00,36,6.20
2010,10,15,00,37,6.20
2010,10,15,00,38,6.10
2010,10,15,00,39,6.10
2010,10,15,00,40,6.10
2010,10,15,00,41,6.00
2010,10,15,00,42,6.00
2010,10,15,00,43,5.90
2010,10,15,00,44,5.90
2010,10,15,00,45,5.90
2010,10,15,00,46,5.90
2010,10,15,00,47,5.80
2010,10,15,00,48,5.80
2010,10,15,00,49,5.80
2010,10,15,00,50,5.70
2010,10,15,00,51,5.70
2010,10,15,00,52,5.70
2010,10,15,00,53,5.60
2010,10,15,00,54,5.60
2010,10,15,00,55,5.60
2010,10,15,00,56,5.60
2010,10,15,00,57,5.50
2010,10,15,00,58,5.50
2010,10,15,00,59,5.40
2010,10,15,01,00,5.40
2010,10,15,01,01,5.40
2010,10,15,01,02,5.40
2010,10,15,01,03,5.30
2010,10,15,01,04,5.30
2010,10,15,01,05,5.30
2010,10,15,01,06,5.30
2010,10,15,01,07,5.20
2010,10,15,01,08,5.20
2010,10,15,01,09,5.20
2010,10,15,01,10,5.20
2010,10,15,01,11,5.10
2010,10,15,01,12,5.10
2010,10,15,01,13,5.10
2010,10,15,01,14,5.00
2010,10,15,01,15,5.00
2010,10,15,01,16,5.00
2010,10,15,01,17,4.90
2010,10,15,01,18,4.90
2010,10,15,01,19,4.90
2010,10,15,01,20,4.90
2010,10,15,01,21,4.90
2010,10,15,01,22,4.90
2010,10,15,01,23,4.90
2010,10,15,01,24,4.80
2010,10,15,01,25,4.80
2010,10,15,01,26,4.80
2010,10,15,01,27,4.80
2010,10,15,01,28,4.80
2010,10,15,01,29,4.70
2010,10,15,01,30,4.70
2010,10,15,01,31,4.70
2010,10,15,01,32,4.60
2010,10,15,01,33,4.60
2010,10,15,01,34,4.60
2010,10,15,01,35,4.50
2010,10,15,01,36,4.50
2010,10,15,01,37,4.50
2010,10,15,01,38,4.40
2010,10,15,01,39,4.40
2010,10,15,01,40,4.40
2010,10,15,01,41,4.40
2010,10,15,01,42,4.40
2010,10,15,01,43,4.30
2010,10,15,01,44,4.30
2010,10,15,01,45,4.30
2010,10,15,01,46,4.30
2010,10,15,01,47,4.30
2010,10,15,01,48,4.30
2010,10,15,01,49,4.30
2010,10,15,01,50,4.30
2010,10,15,01,51,4.30
2010,10,15,01,52,4.30
2010,10,15,01,53,4.30
2010,10,15,01,54,4.20
2010,10,15,01,55,4.20
2010,10,15,01,56,4.20
2010,10,15,01,57,4.20
2010,10,15,01,58,4.20
2010,10,15,01,59,4.10
2010,10,15,02,00,4.10
2010,10,15,02,01,4.10
2010,10,15,02,02,4.10
2010,10,15,02,03,4.10
2010,10,15,02,04,4.10
2010,10,15,02,05,4.10
2010,10,15,02,06,4.10
2010,10,15,02,07,4.20
2010,10,15,02,08,4.20
2010,10,15,02,09,4.20
2010,10,15,02,10,4.20
2010,10,15,02,11,4.20
2010,10,15,02,12,4.20
2010,10,15,02,13,4.20
2010,10,15,02,14,4.20
2010,10,15,02,15,4.10
2010,10,15,02,16,4.10
2010,10,15,02,17,4.10
2010,10,15,02,18,4.10
2010,10,15,02,19,4.10
2010,10,15,02,20,4.10
2010,10,15,02,21,4.10
2010,10,15,02,22,4.10
2010,10,15,02,23,4.00
2010,10,15,02,24,4.00
2010,10,15,02,25,3.90
2010,10,15,02,26,3.90
2010,10,15,02,27,3.90
2010,10,15,02,28,3.80
2010,10,15,02,29,3.80
2010,10,15,02,30,3.80
2010,10,15,02,31,3.80
2010,10,15,02,32,3.80
2010,10,15,02,33,3.80
2010,10,15,02,34,3.80
2010,10,15,02,35,3.80
2010,10,15,02,36,3.80
2010,10,15,02,37,3.80
2010,10,15,02,38,3.80
2010,10,15,02,39,3.80
2010,10,15,02,40,3.80
2010,10,15,02,41,3.90
2010,10,15,02,42,3.90
2010,10,15,02,43,4.00
2010,10,15,02,44,4.10
2010,10,15,02,45,4.10
2010,10,15,02,46,4.20
2010,10,15,02,47,4.20
2010,10,15,02,48,4.30
2010,10,15,02,49,4.30
2010,10,15,02,50,4.30
2010,10,15,02,51,4.40
2010,10,15,02,52,4.40
2010,10,15,02,53,4.40
2010,10,15,02,54,4.40
2010,10,15,02,55,4.40
2010,10,15,02,56,4.40
2010,10,15,02,57,4.40
2010,10,15,02,58,4.40
2010,10,15,02,59,4.40
2010,10,15,03,00,4.40
2010,10,15,03,01,4.40
2010,10,15,03,02,4.30
2010,10,15,03,03,4.30
2010,10,15,03,04,4.30
2010,10,15,03,05,4.30
2010,10,15,03,06,4.30
2010,10,15,03,07,4.30
2010,10,15,03,08,4.30
2010,10,15,03,09,4.30
2010,10,15,03,10,4.30
2010,10,15,03,11,4.30
2010,10,15,03,12,4.20
2010,10,15,03,13,4.20
2010,10,15,03,14,4.20
2010,10,15,03,15,4.20
2010,10,15,03,16,4.10
2010,10,15,03,17,4.10
2010,10,15,03,18,4.10
2010,10,15,03,19,4.10
2010,10,15,03,20,4.10
2010,10,15,03,21,4.10
2010,10,15,03,22,4.10
2010,10,15,03,23,4.10
2010,10,15,03,24,4.10
2010,10,15,03,25,4.00
2010,10,15,03,26,4.00
2010,10,15,03,27,4.00
2010,10,15,03,28,3.90
2010,10,15,03,29,3.90
2010,10,15,03,30,3.90
2010,10,15,03,31,3.90
2010,10,15,03,32,3.90
2010,10,15,03,33,3.80
2010,10,15,03,34,3.80
2010,10,15,03,35,3.80
2010,10,15,03,36,3.80
2010,10,15,03,37,3.70
2010,10,15,03,38,3.70
2010,10,15,03,39,3.70
2010,10,15,03,40,3.60
2010,10,15,03,41,3.60
2010,10,15,03,42,3.60
2010,10,15,03,43,3.60
2010,10,15,03,44,3.60
2010,10,15,03,45,3.60
2010,10,15,03,46,3.60
2010,10,15,03,47,3.60
2010,10,15,03,48,3.60
2010,10,15,03,49,3.70
2010,10,15,03,50,3.70
2010,10,15,03,51,3.80
2010,10,15,03,52,3.80
2010,10,15,03,53,3.80
2010,10,15,03,54,3.80
2010,10,15,03,55,3.80
2010,10,15,03,56,3.80
2010,10,15,03,57,3.80
2010,10,15,03,58,3.80
2010,10,15,03,59,3.90
2010,10,15,04,00,3.90
2010,10,15,04,01,4.00
2010,10,15,04,02,4.00
2010,10,15,04,03,4.10
2010,10,15,04,04,4.10
2010,10,15,04,05,4.10
2010,10,15,04,06,4.10
2010,10,15,04,07,4.10
2010,10,15,04,08,4.20
2010,10,15,04,09,4.20
2010,10,15,04,10,4.20
2010,10,15,04,11,4.20
2010,10,15,04,12,4.10
2010,10,15,04,13,4.10
2010,10,15,04,14,4.10
2010,10,15,04,15,4.10
2010,10,15,04,16,4.20
2010,10,15,04,17,4.20
2010,10,15,04,18,4.30
2010,10,15,04,19,4.30
2010,10,15,04,20,4.30
2010,10,15,04,21,4.40
2010,10,15,04,22,4.40
2010,10,15,04,23,4.40
2010,10,15,04,24,4.50
2010,10,15,04,25,4.60
2010,10,15,04,26,4.70
2010,10,15,04,27,4.70
2010,10,15,04,28,4.80
2010,10,15,04,29,4.90
2010,10,15,04,30,5.00
2010,10,15,04,31,5.10
2010,10,15,04,32,5.20
2010,10,15,04,33,5.30
2010,10,15,04,34,5.50
2010,10,15,04,35,5.60
2010,10,15,04,36,5.70
2010,10,15,04,37,5.80
2010,10,15,04,38,5.90
2010,10,15,04,39,6.00
2010,10,15,04,40,6.10
2010,10,15,04,41,6.20
2010,10,15,04,42,6.20
2010,10,15,04,43,6.20
2010,10,15,04,44,6.20
2010,10,15,04,45,6.20
2010,10,15,04,46,6.20
2010,10,15,04,47,6.20
2010,10,15,04,48,6.20
2010,10,15,04,49,6.30
2010,10,15,04,50,6.30
2010,10,15,04,51,6.30
2010,10,15,04,52,6.30
2010,10,15,04,53,6.30
2010,10,15,04,54,6.30
2010,10,15,04,55,6.30
2010,10,15,04,56,6.30
2010,10,15,04,57,6.30
2010,10,15,04,58,6.30
2010,10,15,04,59,6.20
2010,10,15,05,00,6.20
2010,10,15,05,01,6.20
2010,10,15,05,02,6.20
2010,10,15,05,03,6.20
2010,10,15,05,04,6.20
2010,10,15,05,05,6.10
2010,10,15,05,06,6.10
2010,10,15,05,07,6.10
2010,10,15,05,08,6.00
2010,10,15,05,09,6.00
2010,10,15,05,10,6.00
2010,10,15,05,11,6.00
2010,10,15,05,12,6.00
2010,10,15,05,13,6.00
2010,10,15,05,14,6.10
2010,10,15,05,15,6.10
2010,10,15,05,16,6.10
2010,10,15,05,17,6.20
2010,10,15,05,18,6.20
2010,10,15,05,19,6.20
2010,10,15,05,20,6.30
2010,10,15,05,21,6.30
2010,10,15,05,22,6.30
2010,10,15,05,23,6.40
2010,10,15,05,24,6.40
2010,10,15,05,25,6.40
2010,10,15,05,26,6.40
2010,10,15,05,27,6.40
2010,10,15,05,28,6.40
2010,10,15,05,29,6.40
2010,10,15,05,30,6.40
2010,10,15,05,31,6.50
2010,10,15,05,32,6.40
2010,10,15,05,33,6.40
2010,10,15,05,34,6.40
2010,10,15,05,35,6.40
2010,10,15,05,36,6.40
2010,10,15,05,37,6.40
2010,10,15,05,38,6.40
2010,10,15,05,39,6.40
2010,10,15,05,40,6.40
2010,10,15,05,41,6.40
2010,10,15,05,42,6.40
2010,10,15,05,43,6.40
2010,10,15,05,44,6.30
2010,10,15,05,45,6.30
2010,10,15,05,46,6.30
2010,10,15,05,47,6.30
2010,10,15,05,48,6.20
2010,10,15,05,49,6.20
2010,10,15,05,50,6.20
2010,10,15,05,51,6.10
2010,10,15,05,52,6.10
2010,10,15,05,53,6.10
2010,10,15,05,54,6.00
2010,10,15,05,55,6.00
2010,10,15,05,56,5.90
2010,10,15,05,57,5.90
2010,10,15,05,58,5.80
2010,10,15,05,59,5.80
2010,10,15,06,00,5.80
2010,10,15,06,01,5.80
2010,10,15,06,02,5.80
2010,10,15,06,03,5.80
2010,10,15,06,04,5.80
2010,10,15,06,05,5.70
2010,10,15,06,06,5.70
2010,10,15,06,07,5.70
2010,10,15,06,08,5.70
2010,10,15,06,09,5.70
2010,10,15,06,10,5.80
2010,10,15,06,11,5.80
2010,10,15,06,12,5.80
2010,10,15,06,13,5.80
2010,10,15,06,14,5.80
2010,10,15,06,15,5.70
2010,10,15,06,16,5.70
2010,10,15,06,17,5.70
2010,10,15,06,18,5.70
2010,10,15,06,19,5.80
2010,10,15,06,20,5.80
2010,10,15,06,21,5.90
2010,10,15,06,22,5.90
2010,10,15,06,23,5.90
2010,10,15,06,24,5.90
2010,10,15,06,25,5.80
2010,10,15,06,26,5.80
2010,10,15,06,27,5.80
2010,10,15,06,28,5.80
2010,10,15,06,29,5.80
2010,10,15,06,30,5.80
2010,10,15,06,31,5.80
2010,10,15,06,32,5.90
2010,10,15,06,33,6.00
2010,10,15,06,34,6.00
2010,10,15,06,35,6.10
2010,10,15,06,36,6.20
2010,10,15,06,37,6.20
2010,10,15,06,38,6.20
2010,10,15,06,39,6.20
2010,10,15,06,40,6.20
2010,10,15,06,41,6.20
2010,10,15,06,42,6.20
2010,10,15,06,43,6.20
2010,10,15,06,44,6.20
2010,10,15,06,45,6.20
2010,10,15,06,46,6.20
2010,10,15,06,47,6.20
2010,10,15,06,48,6.20
2010,10,15,06,49,6.20
2010,10,15,06,50,6.20
2010,10,15,06,51,6.20
2010,10,15,06,52,6.20
2010,10,15,06,53,6.20
2010,10,15,06,54,6.30
2010,10,15,06,55,6.30
2010,10,15,06,56,6.30
2010,10,15,06,57,6.40
2010,10,15,06,58,6.50
2010,10,15,06,59,6.50
2010,10,15,07,00,6.60
2010,10,15,07,01,6.60
2010,10,15,07,02,6.60
2010,10,15,07,03,6.60
2010,10,15,07,04,6.60
2010,10,15,07,05,6.70
2010,10,15,07,06,6.70
2010,10,15,07,07,6.70
2010,10,15,07,08,6.70
2010,10,15,07,09,6.70
2010,10,15,07,10,6.80
2010,10,15,07,11,6.80
2010,10,15,07,12,6.80
2010,10,15,07,13,6.70
2010,10,15,07,14,6.70
2010,10,15,07,15,6.70
2010,10,15,07,16,6.70
2010,10,15,07,17,6.70
2010,10,15,07,18,6.70
2010,10,15,07,19,6.70
2010,10,15,07,20,6.70
2010,10,15,07,21,6.70
2010,10,15,07,22,6.70
2010,10,15,07,23,6.70
2010,10,15,07,24,6.70
2010,10,15,07,25,6.70
2010,10,15,07,26,6.70
2010,10,15,07,27,6.70
2010,10,15,07,28,6.70
2010,10,15,07,29,6.70
2010,10,15,07,30,6.70
2010,10,15,07,31,6.60
2010,10,15,07,32,6.60
2010,10,15,07,33,6.60
2010,10,15,07,34,6.60
2010,10,15,07,35,6.60
2010,10,15,07,36,6.50
2010,10,15,07,37,6.50
2010,10,15,07,38,6.50
2010,10,15,07,39,6.50
2010,10,15,07,40,6.40
2010,10,15,07,41,6.40
2010,10,15,07,42,6.40
2010,10,15,07,43,6.40
2010,10,15,07,44,6.40
2010,10,15,07,45,6.50
2010,10,15,07,46,6.50
2010,10,15,07,47,6.50
2010,10,15,07,48,6.50
2010,10,15,07,49,6.40
2010,10,15,07,50,6.40
2010,10,15,07,51,6.40
2010,10,15,07,52,6.40
2010,10,15,07,53,6.30
2010,10,15,07,54,6.30
2010,10,15,07,55,6.30
2010,10,15,07,56,6.20
2010,10,15,07,57,6.20
2010,10,15,07,58,6.20
2010,10,15,07,59,6.10
2010,10,15,08,00,6.10
2010,10,15,08,01,6.10
2010,10,15,08,02,6.00
2010,10,15,08,03,6.00
2010,10,15,08,04,5.90
2010,10,15,08,05,5.90
2010,10,15,08,06,5.90
2010,10,15,08,07,5.80
2010,10,15,08,08,5.80
2010,10,15,08,09,5.80
2010,10,15,08,10,5.70
2010,10,15,08,11,5.70
2010,10,15,08,12,5.70
2010,10,15,08,13,5.70
2010,10,15,08,14,5.80
2010,10,15,08,15,5.80
2010,10,15,08,16,5.80
2010,10,15,08,17,5.90
2010,10,15,08,18,5.90
2010,10,15,08,19,5.90
2010,10,15,08,20,6.00
2010,10,15,08,21,6.00
2010,10,15,08,22,6.00
2010,10,15,08,23,6.10
2010,10,15,08,24,6.00
2010,10,15,08,25,6.00
2010,10,15,08,26,6.00
2010,10,15,08,27,6.00
2010,10,15,08,28,6.00
2010,10,15,08,29,6.10
2010,10,15,08,30,6.10
2010,10,15,08,31,6.10
2010,10,15,08,32,6.20
2010,10,15,08,33,6.20
2010,10,15,08,34,6.30
2010,10,15,08,35,6.30
2010,10,15,08,36,6.40
2010,10,15,08,37,6.50
2010,10,15,08,38,6.50
2010,10,15,08,39,6.60
2010,10,15,08,40,6.60
2010,10,15,08,41,6.70
2010,10,15,08,42,6.80
2010,10,15,08,43,6.80
2010,10,15,08,44,6.80
2010,10,15,08,45,6.90
2010,10,15,08,46,6.90
2010,10,15,08,47,7.00
2010,10,15,08,48,7.10
2010,10,15,08,49,7.10
2010,10,15,08,50,7.10
2010,10,15,08,51,7.20
2010,10,15,08,52,7.30
2010,10,15,08,53,7.30
2010,10,15,08,54,7.30
2010,10,15,08,55,7.40
2010,10,15,08,56,7.40
2010,10,15,08,57,7.40
2010,10,15,08,58,7.40
2010,10,15,08,59,7.50
2010,10,15,09,00,7.50
2010,10,15,09,01,7.50
2010,10,15,09,02,7.60
2010,10,15,09,03,7.60
2010,10,15,09,04,7.70
2010,10,15,09,05,7.70
2010,10,15,09,06,7.70
2010,10,15,09,07,7.80
2010,10,15,09,08,7.80
2010,10,15,09,09,7.90
2010,10,15,09,10,7.90
2010,10,15,09,11,8.00
2010,10,15,09,12,8.00
2010,10,15,09,13,8.10
2010,10,15,09,14,8.10
2010,10,15,09,15,8.10
2010,10,15,09,16,8.10
2010,10,15,09,17,8.10
2010,10,15,09,18,8.20
2010,10,15,09,19,8.20
2010,10,15,09,20,8.20
2010,10,15,09,21,8.20
2010,10,15,09,22,8.20
2010,10,15,09,23,8.30
2010,10,15,09,24,8.30
2010,10,15,09,25,8.30
2010,10,15,09,26,8.40
2010,10,15,09,27,8.40
2010,10,15,09,28,8.40
2010,10,15,09,29,8.40
2010,10,15,09,30,8.50
2010,10,15,09,31,8.50
2010,10,15,09,32,8.50
2010,10,15,09,33,8.60
2010,10,15,09,34,8.60
2010,10,15,09,35,8.60
2010,10,15,09,36,8.70
2010,10,15,09,37,8.70
2010,10,15,09,38,8.70
2010,10,15,09,39,8.70
2010,10,15,09,40,8.80
2010,10,15,09,41,8.80
2010,10,15,09,42,8.80
2010,10,15,09,43,8.80
2010,10,15,09,44,8.80
2010,10,15,09,45,8.90
2010,10,15,09,46,8.90
2010,10,15,09,47,8.90
2010,10,15,09,48,8.90
2010,10,15,09,49,9.00
2010,10,15,09,50,9.00
2010,10,15,09,51,9.10
2010,10,15,09,52,9.10
2010,10,15,09,53,9.10
2010,10,15,09,54,9.10
2010,10,15,09,55,9.20
2010,10,15,09,56,9.20
2010,10,15,09,57,9.20
2010,10,15,09,58,9.20
2010,10,15,09,59,9.30
2010,10,15,10,00,9.30
2010,10,15,10,01,9.30
2010,10,15,10,02,9.40
2010,10,15,10,03,9.40
2010,10,15,10,04,9.40
2010,10,15,10,05,9.40
2010,10,15,10,06,9.40
2010,10,15,10,07,9.40
2010,10,15,10,08,9.50
2010,10,15,10,09,9.50
2010,10,15,10,10,9.50
2010,10,15,10,11,9.60
2010,10,15,10,12,9.60
2010,10,15,10,13,9.60
2010,10,15,10,14,9.70
2010,10,15,10,15,9.70
2010,10,15,10,16,9.70
2010,10,15,10,17,9.70
2010,10,15,10,18,9.80
2010,10,15,10,19,9.80
2010,10,15,10,20,9.80
2010,10,15,10,21,9.80
2010,10,15,10,22,9.80
2010,10,15,10,23,9.80
2010,10,15,10,24,9.80
2010,10,15,10,25,9.80
2010,10,15,10,26,9.90
2010,10,15,10,27,9.90
2010,10,15,10,28,9.90
2010,10,15,10,29,9.90
2010,10,15,10,30,9.90
2010,10,15,10,31,9.90
2010,10,15,10,32,9.90
2010,10,15,10,33,10.00
2010,10,15,10,34,10.00
2010,10,15,10,35,10.00
2010,10,15,10,36,10.00
2010,10,15,10,37,10.00
2010,10,15,10,38,10.00
2010,10,15,10,39,10.10
2010,10,15,10,40,10.10
2010,10,15,10,41,10.10
2010,10,15,10,42,10.10
2010,10,15,10,43,10.10
2010,10,15,10,44,10.10
2010,10,15,10,45,10.10
2010,10,15,10,46,10.20
2010,10,15,10,47,10.20
2010,10,15,10,48,10.20
2010,10,15,10,49,10.20
2010,10,15,10,50,10.20
2010,10,15,10,51,10.30
2010,10,15,10,52,10.30
2010,10,15,10,53,10.30
2010,10,15,10,54,10.30
2010,10,15,10,55,10.30
2010,10,15,10,56,10.40
2010,10,15,10,57,10.40
2010,10,15,10,58,10.40
2010,10,15,10,59,10.40
2010,10,15,11,00,10.50
2010,10,15,11,01,10.50
2010,10,15,11,02,10.50
2010,10,15,11,03,10.50
2010,10,15,11,04,10.50
2010,10,15,11,05,10.50
2010,10,15,11,06,10.50
2010,10,15,11,07,10.40
2010,10,15,11,08,10.40
2010,10,15,11,09,10.40
2010,10,15,11,10,10.30
2010,10,15,11,11,10.30
2010,10,15,11,12,10.30
2010,10,15,11,13,10.30
2010,10,15,11,14,10.30
2010,10,15,11,15,10.30
2010,10,15,11,16,10.30
2010,10,15,11,17,10.30
2010,10,15,11,18,10.30
2010,10,15,11,19,10.40
2010,10,15,11,20,10.40
2010,10,15,11,21,10.40
2010,10,15,11,22,10.40
2010,10,15,11,23,10.40
2010,10,15,11,24,10.40
2010,10,15,11,25,10.40
2010,10,15,11,26,10.40
2010,10,15,11,27,10.40
2010,10,15,11,28,10.40
2010,10,15,11,29,10.50
2010,10,15,11,30,10.50
2010,10,15,11,31,10.50
2010,10,15,11,32,10.50
2010,10,15,11,33,10.50
2010,10,15,11,34,10.50
2010,10,15,11,35,10.50
2010,10,15,11,36,10.50
2010,10,15,11,37,10.50
2010,10,15,11,38,10.50
2010,10,15,11,39,10.60
2010,10,15,11,40,10.60
2010,10,15,11,41,10.60
2010,10,15,11,42,10.60
2010,10,15,11,43,10.70
2010,10,15,11,44,10.70
2010,10,15,11,45,10.80
2010,10,15,11,46,10.80
2010,10,15,11,47,10.80
2010,10,15,11,48,10.80
2010,10,15,11,49,10.80
2010,10,15,11,50,10.80
2010,10,15,11,51,10.80
2010,10,15,11,52,10.80
2010,10,15,11,53,10.80
2010,10,15,11,54,10.90
2010,10,15,11,55,10.90
2010,10,15,11,56,10.90
2010,10,15,11,57,10.90
2010,10,15,11,58,10.80
2010,10,15,11,59,10.80
2010,10,15,12,00,10.80
2010,10,15,12,01,10.80
2010,10,15,12,02,10.70
2010,10,15,12,03,10.70
2010,10,15,12,04,10.70
2010,10,15,12,05,10.70
2010,10,15,12,06,10.70
2010,10,15,12,07,10.80
2010,10,15,12,08,10.80
2010,10,15,12,09,10.80
2010,10,15,12,10,10.80
2010,10,15,12,11,10.80
2010,10,15,12,12,10.80
2010,10,15,12,13,10.80
2010,10,15,12,14,10.80
2010,10,15,12,15,10.80
2010,10,15,12,16,10.70
2010,10,15,12,17,10.70
2010,10,15,12,18,10.70
2010,10,15,12,19,10.70
2010,10,15,12,20,10.70
2010,10,15,12,21,10.70
2010,10,15,12,22,10.80
2010,10,15,12,23,10.80
2010,10,15,12,24,10.80
2010,10,15,12,25,10.80
2010,10,15,12,26,10.80
2010,10,15,12,27,10.80
2010,10,15,12,28,10.80
2010,10,15,12,29,10.90
2010,10,15,12,30,10.90
2010,10,15,12,31,11.00
2010,10,15,12,32,11.00
2010,10,15,12,33,11.10
2010,10,15,12,34,11.10
2010,10,15,12,35,11.20
2010,10,15,12,36,11.10
2010,10,15,12,37,11.10
2010,10,15,12,38,11.10
2010,10,15,12,39,11.20
2010,10,15,12,40,11.20
2010,10,15,12,41,11.20
2010,10,15,12,42,11.20
2010,10,15,12,43,11.20
2010,10,15,12,44,11.20
2010,10,15,12,45,11.10
2010,10,15,12,46,11.10
2010,10,15,12,47,11.10
2010,10,15,12,48,11.10
2010,10,15,12,49,11.10
2010,10,15,12,50,11.10
2010,10,15,12,51,11.10
2010,10,15,12,52,11.00
2010,10,15,12,53,11.00
2010,10,15,12,54,11.10
2010,10,15,12,55,11.10
2010,10,15,12,56,11.10
2010,10,15,12,57,11.10
2010,10,15,12,58,11.10
2010,10,15,12,59,11.10
2010,10,15,13,00,11.20
2010,10,15,13,01,11.20
2010,10,15,13,02,11.30
2010,10,15,13,03,11.30
2010,10,15,13,04,11.30
2010,10,15,13,05,11.30
2010,10,15,13,06,11.30
2010,10,15,13,07,11.30
2010,10,15,13,08,11.30
2010,10,15,13,09,11.30
2010,10,15,13,10,11.30
2010,10,15,13,11,11.30
2010,10,15,13,12,11.30
2010,10,15,13,13,11.40
2010,10,15,13,14,11.40
2010,10,15,13,15,11.40
2010,10,15,13,16,11.40
2010,10,15,13,17,11.50
2010,10,15,13,18,11.50
2010,10,15,13,19,11.50
2010,10,15,13,20,11.50
2010,10,15,13,21,11.60
2010,10,15,13,22,11.60
2010,10,15,13,23,11.60
2010,10,15,13,24,11.70
2010,10,15,13,25,11.70
2010,10,15,13,26,11.80
2010,10,15,13,27,11.80
2010,10,15,13,28,11.80
2010,10,15,13,29,11.80
2010,10,15,13,30,11.80
2010,10,15,13,31,11.80
2010,10,15,13,32,11.80
2010,10,15,13,33,11.80
2010,10,15,13,34,11.70
2010,10,15,13,35,11.70
2010,10,15,13,36,11.70
2010,10,15,13,37,11.60
2010,10,15,13,38,11.50
2010,10,15,13,39,11.40
2010,10,15,13,40,11.40
2010,10,15,13,41,11.50
2010,10,15,13,42,11.50
2010,10,15,13,43,11.50
2010,10,15,13,44,11.40
2010,10,15,13,45,11.40
2010,10,15,13,46,11.40
2010,10,15,13,47,11.50
2010,10,15,13,48,11.50
2010,10,15,13,49,11.50
2010,10,15,13,50,11.60
2010,10,15,13,51,11.60
2010,10,15,13,52,11.60
2010,10,15,13,53,11.60
2010,10,15,13,54,11.60
2010,10,15,13,55,11.60
2010,10,15,13,56,11.60
2010,10,15,13,57,11.60
2010,10,15,13,58,11.50
2010,10,15,13,59,11.50
2010,10,15,14,00,11.50
2010,10,15,14,01,11.50
2010,10,15,14,02,11.50
2010,10,15,14,03,11.50
2010,10,15,14,04,11.50
2010,10,15,14,05,11.50
2010,10,15,14,06,11.50
2010,10,15,14,07,11.50
2010,10,15,14,08,11.50
2010,10,15,14,09,11.50
2010,10,15,14,10,11.50
2010,10,15,14,11,11.60
2010,10,15,14,12,11.70
2010,10,15,14,13,11.70
2010,10,15,14,14,11.70
2010,10,15,14,15,11.70
2010,10,15,14,16,11.70
2010,10,15,14,17,11.70
2010,10,15,14,18,11.60
2010,10,15,14,19,11.60
2010,10,15,14,20,11.60
2010,10,15,14,21,11.60
2010,10,15,14,22,11.60
2010,10,15,14,23,11.60
2010,10,15,14,24,11.70
2010,10,15,14,25,11.70
2010,10,15,14,26,11.80
2010,10,15,14,27,11.80
2010,10,15,14,28,11.80
2010,10,15,14,29,11.90
2010,10,15,14,30,11.90
2010,10,15,14,31,11.90
2010,10,15,14,32,11.90
2010,10,15,14,33,11.90
2010,10,15,14,34,11.90
2010,10,15,14,35,11.90
2010,10,15,14,36,11.90
2010,10,15,14,37,12.00
2010,10,15,14,38,12.00
2010,10,15,14,39,12.00
2010,10,15,14,40,12.00
2010,10,15,14,41,11.90
2010,10,15,14,42,11.80
2010,10,15,14,43,11.80
2010,10,15,14,44,11.80
2010,10,15,14,45,11.80
2010,10,15,14,46,11.80
2010,10,15,14,47,11.80
2010,10,15,14,48,11.80
2010,10,15,14,49,11.80
2010,10,15,14,50,11.80
2010,10,15,14,51,11.80
2010,10,15,14,52,11.80
2010,10,15,14,53,11.80
2010,10,15,14,54,11.80
2010,10,15,14,55,11.80
2010,10,15,14,56,11.80
2010,10,15,14,57,11.80
2010,10,15,14,58,11.80
2010,10,15,14,59,11.80
2010,10,15,15,00,11.80
2010,10,15,15,01,11.80
2010,10,15,15,02,11.80
2010,10,15,15,03,11.80
2010,10,15,15,04,11.80
2010,10,15,15,05,11.80
2010,10,15,15,06,11.80
2010,10,15,15,07,11.90
2010,10,15,15,08,11.90
2010,10,15,15,09,11.90
2010,10,15,15,10,11.90
2010,10,15,15,11,11.80
2010,10,15,15,12,11.80
2010,10,15,15,13,11.80
2010,10,15,15,14,11.80
2010,10,15,15,15,11.80
2010,10,15,15,16,11.80
2010,10,15,15,17,11.90
2010,10,15,15,18,11.90
2010,10,15,15,19,12.00
2010,10,15,15,20,12.00
2010,10,15,15,21,12.10
2010,10,15,15,22,12.10
2010,10,15,15,23,12.10
2010,10,15,15,24,12.20
2010,10,15,15,25,12.10
2010,10,15,15,26,12.10
2010,10,15,15,27,12.10
2010,10,15,15,28,12.00
2010,10,15,15,29,12.00
2010,10,15,15,30,11.90
2010,10,15,15,31,11.90
2010,10,15,15,32,11.90
2010,10,15,15,33,11.90
2010,10,15,15,34,11.90
2010,10,15,15,35,12.00
2010,10,15,15,36,12.00
2010,10,15,15,37,12.00
2010,10,15,15,38,12.00
2010,10,15,15,39,11.90
2010,10,15,15,40,11.90
2010,10,15,15,41,11.90
2010,10,15,15,42,11.90
2010,10,15,15,43,12.00
2010,10,15,15,44,12.00
2010,10,15,15,45,12.00
2010,10,15,15,46,12.00
2010,10,15,15,47,12.10
2010,10,15,15,48,12.10
2010,10,15,15,49,12.10
2010,10,15,15,50,12.00
2010,10,15,15,51,12.10
2010,10,15,15,52,12.00
2010,10,15,15,53,12.10
2010,10,15,15,54,12.10
2010,10,15,15,55,12.10
2010,10,15,15,56,12.10
2010,10,15,15,57,12.20
2010,10,15,15,58,12.20
2010,10,15,15,59,12.20
2010,10,15,16,00,12.20
2010,10,15,16,01,12.20
2010,10,15,16,02,12.20
2010,10,15,16,03,12.20
2010,10,15,16,04,12.10
2010,10,15,16,05,12.10
2010,10,15,16,06,12.10
2010,10,15,16,07,12.10
2010,10,15,16,08,12.10
2010,10,15,16,09,12.10
2010,10,15,16,10,12.00
2010,10,15,16,11,12.00
2010,10,15,16,12,12.00
2010,10,15,16,13,12.10
2010,10,15,16,14,12.10
2010,10,15,16,15,12.10
2010,10,15,16,16,12.10
2010,10,15,16,17,12.10
2010,10,15,16,18,12.10
2010,10,15,16,19,12.10
2010,10,15,16,20,12.10
2010,10,15,16,21,12.10
2010,10,15,16,22,12.10
2010,10,15,16,23,12.10
2010,10,15,16,24,12.10
2010,10,15,16,25,12.00
2010,10,15,16,26,12.00
2010,10,15,16,27,11.90
2010,10,15,16,28,11.90
2010,10,15,16,29,11.90
2010,10,15,16,30,11.90
2010,10,15,16,31,11.80
2010,10,15,16,32,11.80
2010,10,15,16,33,11.80
2010,10,15,16,34,11.80
2010,10,15,16,35,11.90
2010,10,15,16,36,11.90
2010,10,15,16,37,11.90
2010,10,15,16,38,11.80
2010,10,15,16,39,11.80
2010,10,15,16,40,11.80
2010,10,15,16,41,11.80
2010,10,15,16,42,11.80
2010,10,15,16,43,11.80
2010,10,15,16,44,11.80
2010,10,15,16,45,11.80
2010,10,15,16,46,11.80
2010,10,15,16,47,11.80
2010,10,15,16,48,11.80
2010,10,15,16,49,11.80
2010,10,15,16,50,11.80
2010,10,15,16,51,11.80
2010,10,15,16,52,11.80
2010,10,15,16,53,11.80
2010,10,15,16,54,11.80
2010,10,15,16,55,11.80
2010,10,15,16,56,11.80
2010,10,15,16,57,11.80
2010,10,15,16,58,11.80
2010,10,15,16,59,11.80
2010,10,15,17,00,11.80
2010,10,15,17,01,11.80
2010,10,15,17,02,11.90
2010,10,15,17,03,11.90
2010,10,15,17,04,11.90
2010,10,15,17,05,11.90
2010,10,15,17,06,11.80
2010,10,15,17,07,11.80
2010,10,15,17,08,11.80
2010,10,15,17,09,11.70
2010,10,15,17,10,11.60
2010,10,15,17,11,11.50
2010,10,15,17,12,11.50
2010,10,15,17,13,11.40
2010,10,15,17,14,11.30
2010,10,15,17,15,11.20
2010,10,15,17,16,11.10
2010,10,15,17,17,11.10
2010,10,15,17,18,11.00
2010,10,15,17,19,10.90
2010,10,15,17,20,10.90
2010,10,15,17,21,10.80
2010,10,15,17,22,10.70
2010,10,15,17,23,10.60
2010,10,15,17,24,10.50
2010,10,15,17,25,10.40
2010,10,15,17,26,10.30
2010,10,15,17,27,10.30
2010,10,15,17,28,10.20
2010,10,15,17,29,10.10
2010,10,15,17,30,10.00
2010,10,15,17,31,9.90
2010,10,15,17,32,9.90
2010,10,15,17,33,9.80
2010,10,15,17,34,9.80
2010,10,15,17,35,9.70
2010,10,15,17,36,9.60
2010,10,15,17,37,9.60
2010,10,15,17,38,9.50
2010,10,15,17,39,9.40
2010,10,15,17,40,9.40
2010,10,15,17,41,9.30
2010,10,15,17,42,9.30
2010,10,15,17,43,9.20
2010,10,15,17,44,9.20
2010,10,15,17,45,9.20
2010,10,15,17,46,9.10
2010,10,15,17,47,9.10